Track YAOGAN 21 now! 10-day predictions YAOGAN 21 is classified as:
1 40143U 14053A 26248.64039382 .00005915 00000-0 22369-3 0 9997 2 40143 97.1422 285.4488 0008413 154.8497 205.3154 15.27287663667233